Location: Rosenheim
(47.8408°N, 12.2113°E)
Time: 12:45:31
(UTC+01:00)

ISS - Visible Passes

Search period start: 23 February 2017 00:00
Search period end: 05 March 2017 00:00
Orbit: 399 x 408 km, 51.6° (Epoch: 23 February)

Date Brightness Start Highest point End Pass type
(mag) Time Alt. Az. Time Alt. Az. Time Alt. Az.
01 Mar -0.2 05:57:08 10° SSE 05:58:19 11° SE 05:59:29 10° ESE visible
03 Mar -1.0 05:46:36 10° SSW 05:49:15 23° SE 05:51:56 10° E visible
04 Mar -0.5 04:55:08 10° SSE 04:56:52 14° SE 04:58:37 10° ESE visible
